DLH464 KBOS-LOWW

Flight info

Callsign DLH464
Flight time N/A
Altitude 39000
Route CELTK7 CELTK FRILL KANNI N97B SUPRY 4650N 4840N 4830N 4820N 4815N UMLER UN734 UMOXA KORER OBATO RESMI TEPRI POGZI GELTA LUVAL LUPEN KUNOD VAVOR INPUL NEMAL
Aircraft A359/H-SDE2E3GHIJ3J4J5LM1ORWXY/LB1D1

Departure

Time N/A
Airport Boston Logan International Airport (KBOS)

Arrival

Time 2026-04-25 22:26
Airport Vienna International Airport (LOWW)
Time Latitude Longitude Altitude Speed Heading
2026-04-25 18:32 48.05717 -28.44443 39069 ft 517 kts 88°
2026-04-25 18:32 48.05877 -28.39077 39070 ft 517 kts 88°
2026-04-25 18:32 48.06188 -28.28316 39072 ft 517 kts 88°
2026-04-25 18:33 48.06490 -28.17578 39073 ft 517 kts 88°
2026-04-25 18:33 48.06781 -28.06819 39077 ft 517 kts 88°
2026-04-25 18:34 48.07061 -27.96140 39074 ft 517 kts 88°
2026-04-25 18:34 48.07331 -27.85422 39075 ft 514 kts 88°
2026-04-25 18:35 48.07548 -27.76532 39081 ft 515 kts 88°
2026-04-25 18:35 48.07801 -27.65796 39082 ft 515 kts 88°
2026-04-25 18:36 48.08043 -27.55097 39083 ft 515 kts 88°
2026-04-25 18:36 48.08275 -27.44391 39086 ft 514 kts 88°
2026-04-25 18:37 48.08497 -27.33701 39086 ft 514 kts 88°
2026-04-25 18:37 48.08708 -27.23043 39086 ft 513 kts 88°
2026-04-25 18:38 48.08909 -27.12388 39086 ft 512 kts 88°
2026-04-25 18:38 48.09101 -27.01753 39088 ft 511 kts 88°
2026-04-25 18:39 48.09282 -26.91125 39092 ft 511 kts 89°
2026-04-25 18:39 48.09453 -26.80497 39089 ft 510 kts 89°
2026-04-25 18:40 48.09613 -26.69952 39088 ft 510 kts 89°
2026-04-25 18:40 48.09765 -26.59349 39093 ft 510 kts 89°
2026-04-25 18:41 48.09907 -26.48744 39093 ft 509 kts 89°
2026-04-25 18:41 48.10038 -26.38152 39095 ft 509 kts 89°
2026-04-25 18:42 48.10140 -26.29350 39098 ft 509 kts 89°
2026-04-25 18:42 48.10273 -26.16964 39095 ft 509 kts 89°
2026-04-25 18:43 48.10375 -26.06391 39090 ft 509 kts 89°
2026-04-25 18:43 48.10468 -25.95786 39095 ft 509 kts 89°
2026-04-25 18:44 48.10552 -25.85193 39100 ft 509 kts 89°
2026-04-25 18:44 48.10625 -25.74590 39097 ft 509 kts 89°
2026-04-25 18:45 48.10689 -25.63990 39099 ft 509 kts 89°
2026-04-25 18:45 48.10743 -25.53399 39099 ft 509 kts 90°
2026-04-25 18:46 48.10786 -25.42887 39098 ft 508 kts 90°
2026-04-25 18:46 48.10821 -25.32300 39096 ft 508 kts 90°
2026-04-25 18:47 48.10846 -25.21728 39099 ft 508 kts 90°
2026-04-25 18:47 48.10861 -25.11169 39096 ft 508 kts 90°
2026-04-25 18:48 48.10866 -25.00588 39095 ft 507 kts 90°
2026-04-25 18:48 48.10862 -24.90031 39100 ft 507 kts 90°
2026-04-25 18:49 48.10848 -24.79502 39099 ft 506 kts 90°
2026-04-25 18:49 48.10824 -24.68957 39093 ft 506 kts 90°
2026-04-25 18:50 48.10791 -24.58420 39097 ft 506 kts 90°
2026-04-25 18:50 48.10749 -24.47976 39097 ft 505 kts 90°
2026-04-25 18:51 48.10706 -24.39148 39101 ft 505 kts 91°
2026-04-25 18:51 48.10634 -24.26925 39099 ft 505 kts 91°
2026-04-25 18:52 48.10563 -24.16395 39099 ft 505 kts 91°
2026-04-25 18:52 48.10482 -24.05889 39096 ft 505 kts 91°
2026-04-25 18:53 48.10391 -23.95400 39092 ft 504 kts 91°
2026-04-25 18:53 48.10292 -23.84999 39092 ft 504 kts 91°
2026-04-25 18:54 48.10124 -23.69239 39097 ft 504 kts 91°
2026-04-25 18:55 48.10000 -23.58755 39090 ft 504 kts 91°
2026-04-25 18:55 48.09867 -23.48264 39093 ft 504 kts 91°
2026-04-25 18:56 48.09724 -23.37768 39097 ft 504 kts 91°
2026-04-25 18:56 48.09572 -23.27292 39092 ft 504 kts 91°
2026-04-25 18:57 48.09410 -23.16804 39092 ft 504 kts 92°
2026-04-25 18:57 48.09239 -23.06341 39087 ft 503 kts 92°
2026-04-25 18:58 48.09058 -22.95870 39089 ft 503 kts 92°
2026-04-25 18:58 48.08770 -22.80245 39092 ft 503 kts 92°
2026-04-25 18:59 48.08353 -22.59347 39087 ft 503 kts 92°
2026-04-25 19:00 48.08014 -22.43649 39087 ft 503 kts 92°
2026-04-25 19:01 48.07654 -22.27943 39084 ft 503 kts 92°
2026-04-25 19:01 48.07402 -22.17480 39089 ft 503 kts 92°
2026-04-25 19:02 48.07008 -22.01850 39089 ft 504 kts 92°
2026-04-25 19:03 48.06684 -21.89610 39087 ft 504 kts 92°
2026-04-25 19:03 48.06300 -21.75670 39089 ft 504 kts 92°
2026-04-25 19:04 48.05846 -21.59940 39087 ft 504 kts 93°
2026-04-25 19:05 48.05210 -21.39051 39085 ft 504 kts 93°
2026-04-25 19:06 48.04877 -21.28584 39082 ft 504 kts 93°
2026-04-25 19:06 48.04357 -21.12806 39084 ft 504 kts 93°
2026-04-25 19:07 48.03820 -20.97175 39083 ft 504 kts 94°
2026-04-25 19:08 48.03260 -20.81470 39085 ft 504 kts 94°
2026-04-25 19:09 48.02614 -20.64091 39083 ft 504 kts 94°
2026-04-25 19:10 48.01870 -20.44872 39081 ft 504 kts 94°
2026-04-25 19:10 48.01453 -20.34474 39081 ft 504 kts 94°
2026-04-25 19:11 48.01026 -20.24026 39086 ft 504 kts 94°
2026-04-25 19:11 48.00588 -20.13570 39086 ft 504 kts 94°
2026-04-25 19:12 48.00142 -20.03107 39085 ft 504 kts 95°
2026-04-25 19:12 48.00152 -19.92636 39088 ft 505 kts 89°
2026-04-25 19:13 48.00355 -19.82154 39089 ft 505 kts 89°
2026-04-25 19:13 48.00577 -19.71676 39087 ft 505 kts 89°
2026-04-25 19:14 48.00783 -19.61209 39089 ft 504 kts 89°
2026-04-25 19:14 48.00972 -19.50750 39092 ft 505 kts 89°
2026-04-25 19:15 48.01149 -19.40314 39091 ft 505 kts 89°
2026-04-25 19:15 48.01316 -19.29830 39095 ft 505 kts 89°
2026-04-25 19:16 48.01475 -19.19345 39100 ft 505 kts 90°
2026-04-25 19:16 48.01625 -19.08848 39100 ft 505 kts 90°
2026-04-25 19:17 48.01764 -18.98421 39103 ft 505 kts 90°
2026-04-25 19:17 48.01894 -18.87930 39104 ft 505 kts 90°
2026-04-25 19:18 48.02015 -18.77447 39107 ft 505 kts 90°
2026-04-25 19:18 48.02126 -18.66967 39108 ft 505 kts 90°
2026-04-25 19:19 48.02228 -18.56476 39112 ft 505 kts 90°
2026-04-25 19:19 48.02320 -18.45985 39117 ft 505 kts 90°
2026-04-25 19:20 48.02389 -18.37283 39115 ft 505 kts 91°
2026-04-25 19:20 48.02464 -18.26786 39118 ft 505 kts 91°
2026-04-25 19:21 48.02529 -18.16296 39124 ft 505 kts 91°
2026-04-25 19:21 48.02616 -17.98854 39124 ft 505 kts 91°
2026-04-25 19:22 48.02650 -17.90122 39124 ft 505 kts 91°
2026-04-25 19:23 48.02694 -17.74309 39132 ft 505 kts 91°
2026-04-25 19:23 48.02717 -17.58633 39136 ft 505 kts 92°
2026-04-25 19:24 48.02720 -17.48137 39136 ft 505 kts 92°
2026-04-25 19:25 48.02697 -17.27146 39141 ft 505 kts 92°
2026-04-25 19:25 48.02672 -17.16648 39146 ft 505 kts 92°
2026-04-25 19:26 48.02636 -17.06152 39150 ft 505 kts 92°
2026-04-25 19:26 48.02592 -16.95726 39154 ft 504 kts 92°
2026-04-25 19:27 48.02548 -16.86938 39157 ft 504 kts 92°
2026-04-25 19:27 48.02475 -16.74776 39155 ft 504 kts 93°
2026-04-25 19:28 48.02402 -16.64302 39162 ft 504 kts 93°
2026-04-25 19:28 48.02319 -16.53824 39166 ft 504 kts 93°
2026-04-25 19:29 48.02227 -16.43352 39167 ft 504 kts 93°
2026-04-25 19:29 48.02125 -16.32863 39167 ft 504 kts 93°
2026-04-25 19:30 48.02014 -16.22406 39181 ft 504 kts 94°
2026-04-25 19:30 48.01894 -16.12009 39165 ft 504 kts 94°
2026-04-25 19:31 48.01764 -16.01525 39174 ft 504 kts 94°
2026-04-25 19:31 48.01624 -15.91072 39186 ft 504 kts 94°
2026-04-25 19:32 48.01475 -15.80601 39177 ft 504 kts 94°
2026-04-25 19:32 48.01344 -15.71910 39187 ft 504 kts 94°
2026-04-25 19:33 48.01148 -15.59660 39185 ft 504 kts 94°
2026-04-25 19:33 48.00970 -15.49195 39183 ft 504 kts 94°
2026-04-25 19:34 48.00783 -15.38720 39184 ft 504 kts 94°
2026-04-25 19:34 48.00588 -15.28321 39192 ft 504 kts 94°
2026-04-25 19:35 48.00380 -15.17801 39192 ft 504 kts 95°
2026-04-25 19:35 48.00166 -15.07392 39189 ft 504 kts 95°
2026-04-25 19:36 47.99931 -14.96918 39195 ft 504 kts 96°
2026-04-25 19:36 47.99417 -14.86519 39203 ft 502 kts 98°
2026-04-25 19:37 47.98777 -14.76113 39204 ft 502 kts 98°
2026-04-25 19:37 47.98168 -14.65767 39201 ft 502 kts 98°
2026-04-25 19:38 47.97582 -14.55373 39203 ft 502 kts 98°
2026-04-25 19:38 47.96996 -14.44971 39208 ft 502 kts 98°
2026-04-25 19:39 47.96400 -14.34581 39204 ft 502 kts 98°
2026-04-25 19:39 47.95794 -14.24197 39210 ft 502 kts 98°
2026-04-25 19:40 47.95177 -14.13801 39210 ft 502 kts 98°
2026-04-25 19:40 47.94550 -14.03412 39212 ft 502 kts 98°
2026-04-25 19:41 47.93915 -13.93036 39216 ft 503 kts 98°
2026-04-25 19:41 47.93488 -13.86147 39212 ft 503 kts 98°
2026-04-25 19:42 47.92618 -13.72319 39214 ft 503 kts 98°
2026-04-25 19:42 47.91954 -13.61935 39217 ft 503 kts 98°
2026-04-25 19:43 47.91280 -13.51534 39215 ft 503 kts 98°
2026-04-25 19:43 47.90597 -13.41163 39219 ft 503 kts 98°
2026-04-25 19:44 47.89906 -13.30804 39222 ft 503 kts 98°
2026-04-25 19:44 47.89209 -13.20494 39218 ft 503 kts 98°
2026-04-25 19:45 47.88499 -13.10130 39219 ft 503 kts 98°
2026-04-25 19:45 47.87779 -12.99767 39224 ft 503 kts 98°
2026-04-25 19:46 47.87049 -12.89397 39224 ft 503 kts 99°
2026-04-25 19:46 47.86311 -12.79046 39228 ft 503 kts 99°
2026-04-25 19:47 47.85563 -12.68694 39225 ft 503 kts 99°
2026-04-25 19:47 47.84807 -12.58347 39230 ft 503 kts 99°
2026-04-25 19:48 47.84041 -12.48002 39230 ft 503 kts 99°
2026-04-25 19:48 47.83270 -12.37725 39231 ft 503 kts 99°
2026-04-25 19:49 47.82746 -12.30809 39230 ft 503 kts 99°
2026-04-25 19:49 47.81690 -12.17028 39230 ft 503 kts 99°
2026-04-25 19:50 47.80482 -12.01540 39235 ft 502 kts 99°
2026-04-25 19:51 47.79671 -11.91284 39228 ft 501 kts 99°
2026-04-25 19:51 47.78847 -11.80987 39231 ft 501 kts 99°
2026-04-25 19:52 47.78014 -11.70700 39234 ft 501 kts 99°
2026-04-25 19:52 47.77172 -11.60411 39231 ft 501 kts 99°
2026-04-25 19:53 47.76320 -11.50127 39237 ft 501 kts 99°
2026-04-25 19:53 47.75460 -11.39854 39234 ft 501 kts 99°
2026-04-25 19:54 47.74593 -11.29608 39237 ft 502 kts 99°
2026-04-25 19:54 47.73712 -11.19317 39236 ft 502 kts 100°
2026-04-25 19:55 47.72822 -11.09022 39238 ft 502 kts 100°
2026-04-25 19:55 47.71922 -10.98723 39236 ft 502 kts 100°
2026-04-25 19:56 47.71019 -10.88497 39234 ft 502 kts 100°
2026-04-25 19:56 47.70100 -10.78202 39237 ft 502 kts 100°
2026-04-25 19:57 47.69173 -10.67924 39237 ft 502 kts 100°
2026-04-25 19:57 47.68238 -10.57658 39236 ft 502 kts 100°
2026-04-25 19:58 47.67291 -10.47369 39242 ft 502 kts 100°
2026-04-25 19:58 47.66338 -10.37111 39234 ft 502 kts 100°
2026-04-25 19:59 47.65373 -10.26839 39231 ft 503 kts 100°
2026-04-25 19:59 47.64406 -10.16634 39232 ft 503 kts 100°
2026-04-25 20:00 47.63422 -10.06358 39236 ft 503 kts 100°
2026-04-25 20:00 47.62430 -9.96095 39244 ft 503 kts 100°
2026-04-25 20:01 47.60925 -9.80708 39234 ft 503 kts 100°
2026-04-25 20:01 47.59910 -9.70450 39236 ft 503 kts 100°
2026-04-25 20:02 47.58884 -9.60184 39238 ft 503 kts 100°
2026-04-25 20:02 47.57856 -9.49982 39241 ft 503 kts 100°
2026-04-25 20:03 47.56811 -9.39718 39238 ft 503 kts 100°
2026-04-25 20:03 47.55761 -9.29488 39240 ft 504 kts 101°
2026-04-25 20:04 47.54696 -9.19220 39236 ft 504 kts 101°
2026-04-25 20:04 47.53622 -9.08940 39236 ft 504 kts 101°
2026-04-25 20:05 47.52539 -8.98677 39240 ft 505 kts 101°
2026-04-25 20:05 47.51447 -8.88417 39238 ft 505 kts 101°
2026-04-25 20:06 47.50530 -8.79874 39238 ft 505 kts 101°
2026-04-25 20:06 47.50025 -8.69514 39238 ft 507 kts 92°
2026-04-25 20:07 47.50002 -8.59102 39242 ft 507 kts 91°
2026-04-25 20:07 47.50041 -8.48661 39241 ft 507 kts 90°
2026-04-25 20:08 47.50064 -8.38296 39243 ft 507 kts 91°
2026-04-25 20:08 47.50065 -8.27864 39245 ft 507 kts 91°
2026-04-25 20:09 47.50051 -8.17437 39242 ft 506 kts 91°
2026-04-25 20:09 47.50027 -8.07023 39248 ft 506 kts 91°
2026-04-25 20:10 47.50218 -7.96641 39246 ft 506 kts 86°
2026-04-25 20:10 47.50767 -7.86251 39245 ft 505 kts 85°
2026-04-25 20:11 47.51359 -7.75890 39242 ft 505 kts 85°
2026-04-25 20:11 47.51942 -7.65529 39240 ft 505 kts 85°
2026-04-25 20:12 47.52504 -7.55238 39240 ft 505 kts 85°
2026-04-25 20:12 47.52967 -7.46566 39242 ft 504 kts 85°
2026-04-25 20:13 47.53599 -7.34533 39240 ft 504 kts 85°
2026-04-25 20:13 47.54131 -7.24186 39237 ft 504 kts 85°
2026-04-25 20:14 47.54655 -7.13835 39239 ft 504 kts 85°
2026-04-25 20:14 47.55168 -7.03518 39239 ft 503 kts 85°
2026-04-25 20:15 47.55673 -6.93160 39237 ft 503 kts 85°
2026-04-25 20:15 47.56167 -6.82833 39237 ft 503 kts 85°
2026-04-25 20:16 47.56652 -6.72517 39238 ft 503 kts 85°
2026-04-25 20:16 47.57129 -6.62167 39238 ft 502 kts 85°
2026-04-25 20:17 47.57592 -6.51913 39238 ft 502 kts 85°
2026-04-25 20:17 47.58048 -6.41594 39236 ft 502 kts 86°
2026-04-25 20:18 47.58496 -6.31257 39236 ft 502 kts 86°
2026-04-25 20:18 47.58935 -6.20927 39233 ft 502 kts 85°
2026-04-25 20:19 47.59364 -6.10605 39232 ft 502 kts 86°
2026-04-25 20:19 47.59784 -6.00267 39230 ft 502 kts 85°
2026-04-25 20:20 47.60194 -5.89934 39232 ft 503 kts 85°
2026-04-25 20:20 47.60596 -5.79588 39230 ft 503 kts 86°
2026-04-25 20:21 47.60988 -5.69242 39228 ft 503 kts 85°
2026-04-25 20:21 47.61371 -5.58892 39224 ft 503 kts 85°
2026-04-25 20:22 47.61683 -5.50287 39225 ft 503 kts 85°
2026-04-25 20:22 47.62110 -5.38176 39221 ft 503 kts 85°
2026-04-25 20:23 47.62464 -5.27879 39223 ft 503 kts 85°
2026-04-25 20:23 47.62809 -5.17527 39219 ft 503 kts 85°
2026-04-25 20:24 47.63147 -5.07155 39217 ft 503 kts 86°
2026-04-25 20:24 47.63474 -4.96797 39214 ft 502 kts 86°
2026-04-25 20:25 47.63791 -4.86461 39207 ft 501 kts 86°
2026-04-25 20:25 47.64097 -4.76205 39207 ft 501 kts 86°
2026-04-25 20:26 47.64395 -4.65878 39199 ft 500 kts 86°
2026-04-25 20:26 47.64684 -4.55577 39198 ft 500 kts 86°
2026-04-25 20:27 47.64963 -4.45282 39192 ft 499 kts 86°
2026-04-25 20:27 47.65232 -4.35001 39183 ft 499 kts 86°
2026-04-25 20:28 47.65492 -4.24718 39184 ft 498 kts 86°
2026-04-25 20:28 47.65743 -4.14466 39177 ft 498 kts 86°
2026-04-25 20:29 47.65984 -4.04209 39176 ft 498 kts 86°
2026-04-25 20:29 47.66215 -3.93998 39171 ft 498 kts 86°
2026-04-25 20:30 47.66438 -3.83725 39171 ft 498 kts 86°
2026-04-25 20:30 47.66652 -3.73469 39168 ft 498 kts 86°
2026-04-25 20:31 47.66856 -3.63216 39168 ft 498 kts 86°
2026-04-25 20:31 47.67052 -3.52938 39170 ft 497 kts 86°
2026-04-25 20:32 47.67238 -3.42684 39168 ft 497 kts 86°
2026-04-25 20:32 47.67415 -3.32423 39168 ft 497 kts 86°
2026-04-25 20:33 47.67583 -3.22168 39168 ft 497 kts 86°
2026-04-25 20:33 47.67716 -3.13637 39165 ft 496 kts 87°
2026-04-25 20:34 47.67891 -3.01707 39161 ft 496 kts 87°
2026-04-25 20:34 47.68031 -2.91472 39161 ft 496 kts 87°
2026-04-25 20:35 47.68162 -2.81252 39156 ft 496 kts 87°
2026-04-25 20:35 47.68284 -2.71018 39158 ft 496 kts 87°
2026-04-25 20:36 47.68397 -2.60781 39159 ft 496 kts 87°
2026-04-25 20:36 47.68689 -2.50572 39161 ft 494 kts 80°
2026-04-25 20:37 47.70168 -2.40636 39162 ft 492 kts 73°
2026-04-25 20:37 47.71925 -2.30805 39164 ft 492 kts 72°
2026-04-25 20:38 47.73702 -2.21034 39160 ft 493 kts 73°
2026-04-25 20:38 47.75469 -2.11165 39162 ft 493 kts 73°
2026-04-25 20:39 47.77209 -2.01317 39155 ft 494 kts 73°
2026-04-25 20:39 47.78361 -1.94749 39158 ft 494 kts 73°
2026-04-25 20:40 47.80675 -1.81495 39169 ft 495 kts 73°
2026-04-25 20:40 47.82385 -1.71638 39174 ft 495 kts 73°
2026-04-25 20:41 47.84104 -1.61674 39169 ft 496 kts 73°
2026-04-25 20:41 47.85810 -1.51732 39177 ft 496 kts 74°
2026-04-25 20:42 47.87511 -1.41756 39169 ft 496 kts 74°
2026-04-25 20:42 47.89193 -1.31840 39167 ft 497 kts 74°
2026-04-25 20:43 47.90874 -1.21871 39168 ft 496 kts 74°
2026-04-25 20:43 47.92551 -1.11867 39171 ft 496 kts 75°
2026-04-25 20:44 47.94214 -1.01888 39179 ft 496 kts 75°
2026-04-25 20:44 47.95872 -0.91884 39184 ft 496 kts 75°
2026-04-25 20:45 47.97518 -0.81889 39184 ft 496 kts 75°
2026-04-25 20:45 47.99156 -0.71885 39189 ft 496 kts 75°
2026-04-25 20:46 48.00800 -0.61884 39184 ft 496 kts 75°
2026-04-25 20:46 48.02471 -0.51900 39182 ft 496 kts 75°
2026-04-25 20:47 48.04127 -0.41943 39172 ft 496 kts 75°
2026-04-25 20:47 48.05774 -0.31943 39169 ft 496 kts 75°
2026-04-25 20:48 48.07413 -0.21913 39172 ft 496 kts 75°
2026-04-25 20:48 48.09041 -0.11887 39173 ft 496 kts 75°
2026-04-25 20:49 48.10660 -0.01858 39176 ft 496 kts 75°
2026-04-25 20:49 48.12272 0.08188 39177 ft 496 kts 75°
2026-04-25 20:50 48.13868 0.18187 39178 ft 496 kts 75°
2026-04-25 20:50 48.15460 0.28228 39178 ft 496 kts 76°
2026-04-25 20:51 48.16781 0.36608 39175 ft 496 kts 76°
2026-04-25 20:51 48.18358 0.46667 39174 ft 496 kts 76°
2026-04-25 20:52 48.19665 0.55048 39165 ft 496 kts 76°
2026-04-25 20:52 48.21488 0.66820 39165 ft 496 kts 76°
2026-04-25 20:53 48.23043 0.76923 39166 ft 496 kts 76°
2026-04-25 20:53 48.24575 0.86941 39163 ft 496 kts 76°
2026-04-25 20:54 48.26107 0.97028 39162 ft 496 kts 76°
2026-04-25 20:54 48.27632 1.07122 39164 ft 496 kts 76°
2026-04-25 20:55 48.29148 1.17229 39160 ft 496 kts 76°
2026-04-25 20:55 48.30655 1.27340 39159 ft 496 kts 76°
2026-04-25 20:56 48.32156 1.37478 39160 ft 496 kts 77°
2026-04-25 20:56 48.33646 1.47603 39162 ft 496 kts 77°
2026-04-25 20:57 48.35129 1.57747 39160 ft 496 kts 77°
2026-04-25 20:57 48.36593 1.67834 39163 ft 497 kts 77°
2026-04-25 20:58 48.38056 1.77976 39166 ft 497 kts 77°
2026-04-25 20:58 48.39516 1.88166 39167 ft 497 kts 77°
2026-04-25 20:59 48.40964 1.98337 39170 ft 497 kts 77°
2026-04-25 20:59 48.42402 2.08514 39174 ft 498 kts 77°
2026-04-25 21:00 48.42881 2.11918 39175 ft 498 kts 77°
2026-04-25 21:01 48.45307 2.29278 39184 ft 498 kts 77°
2026-04-25 21:01 48.46722 2.39501 39179 ft 499 kts 77°
2026-04-25 21:02 48.48131 2.49755 39184 ft 499 kts 78°
2026-04-25 21:02 48.49532 2.60014 39184 ft 500 kts 78°
2026-04-25 21:03 48.50923 2.70278 39185 ft 500 kts 78°
2026-04-25 21:03 48.52309 2.80571 39183 ft 500 kts 78°
2026-04-25 21:04 48.53683 2.90857 39184 ft 500 kts 78°
2026-04-25 21:04 48.54321 3.01282 39186 ft 501 kts 91°
2026-04-25 21:05 48.54064 3.11737 39184 ft 501 kts 93°
2026-04-25 21:05 48.53666 3.22247 39182 ft 501 kts 94°
2026-04-25 21:06 48.53257 3.32745 39180 ft 502 kts 94°
2026-04-25 21:06 48.52856 3.43275 39181 ft 502 kts 93°
2026-04-25 21:07 48.52456 3.53770 39185 ft 502 kts 94°
2026-04-25 21:07 48.52046 3.64292 39184 ft 501 kts 94°
2026-04-25 21:08 48.51626 3.74810 39183 ft 501 kts 94°
2026-04-25 21:08 48.51200 3.85232 39183 ft 501 kts 94°
2026-04-25 21:09 48.50444 4.00977 39181 ft 501 kts 99°
2026-04-25 21:09 48.48891 4.11217 39182 ft 500 kts 105°
2026-04-25 21:10 48.47084 4.21194 39180 ft 501 kts 106°
2026-04-25 21:10 48.45204 4.31286 39181 ft 501 kts 107°
2026-04-25 21:11 48.43340 4.41317 39174 ft 501 kts 106°
2026-04-25 21:11 48.41462 4.51444 39172 ft 501 kts 106°
2026-04-25 21:12 48.39581 4.61557 39172 ft 501 kts 107°
2026-04-25 21:12 48.38013 4.69945 39174 ft 501 kts 107°
2026-04-25 21:13 48.35810 4.81654 39175 ft 501 kts 107°
2026-04-25 21:13 48.33904 4.91732 39170 ft 501 kts 107°
2026-04-25 21:14 48.31986 5.01809 39169 ft 501 kts 107°
2026-04-25 21:14 48.30173 5.11911 39171 ft 501 kts 101°
2026-04-25 21:15 48.29851 5.22351 39170 ft 501 kts 86°
2026-04-25 21:15 48.30446 5.32791 39170 ft 502 kts 84°
2026-04-25 21:16 48.31160 5.43178 39166 ft 502 kts 84°
2026-04-25 21:16 48.31858 5.53652 39170 ft 502 kts 84°
2026-04-25 21:17 48.32516 5.64090 39162 ft 502 kts 84°
2026-04-25 21:17 48.33155 5.74538 39161 ft 502 kts 84°
2026-04-25 21:18 48.33781 5.84925 39155 ft 502 kts 84°
2026-04-25 21:18 48.34401 5.95379 39154 ft 502 kts 84°
2026-04-25 21:19 48.35013 6.05827 39158 ft 502 kts 84°
2026-04-25 21:19 48.35616 6.16280 39158 ft 502 kts 84°
2026-04-25 21:20 48.36110 6.24981 39155 ft 502 kts 85°
2026-04-25 21:20 48.36793 6.37215 39154 ft 502 kts 85°
2026-04-25 21:21 48.37368 6.47688 39151 ft 502 kts 85°
2026-04-25 21:21 48.37929 6.58090 39150 ft 502 kts 85°
2026-04-25 21:22 48.38485 6.68569 39149 ft 503 kts 85°
2026-04-25 21:22 48.39032 6.79065 39150 ft 503 kts 85°
2026-04-25 21:23 48.39571 6.89589 39145 ft 503 kts 85°
2026-04-25 21:23 48.40100 7.00109 39149 ft 504 kts 85°
2026-04-25 21:24 48.40615 7.10561 39147 ft 504 kts 85°
2026-04-25 21:24 48.41128 7.21161 39150 ft 504 kts 85°
2026-04-25 21:25 48.41625 7.31613 39150 ft 504 kts 85°
2026-04-25 21:25 48.42117 7.42161 39150 ft 504 kts 85°
2026-04-25 21:26 48.42599 7.52714 39156 ft 504 kts 85°
2026-04-25 21:26 48.43070 7.63243 39157 ft 504 kts 85°
2026-04-25 21:27 48.43411 7.73713 39157 ft 504 kts 91°
2026-04-25 21:27 48.43073 7.84270 39156 ft 504 kts 92°
2026-04-25 21:28 48.42602 7.94800 39154 ft 504 kts 93°
2026-04-25 21:28 48.42105 8.05341 39153 ft 504 kts 93°
2026-04-25 21:29 48.41610 8.15902 39149 ft 504 kts 93°
2026-04-25 21:29 48.41118 8.26365 39150 ft 504 kts 93°
2026-04-25 21:30 48.40616 8.36884 39145 ft 504 kts 93°
2026-04-25 21:30 48.40190 8.45632 39147 ft 504 kts 93°
2026-04-25 21:31 48.39579 8.57933 39147 ft 504 kts 93°
2026-04-25 21:31 48.39047 8.68445 39150 ft 504 kts 93°
2026-04-25 21:32 48.38506 8.78948 39151 ft 504 kts 93°
2026-04-25 21:32 48.37952 8.89490 39148 ft 504 kts 93°
2026-04-25 21:33 48.37394 8.99938 39150 ft 504 kts 93°
2026-04-25 21:33 48.36823 9.10459 39151 ft 504 kts 93°
2026-04-25 21:34 48.36242 9.20965 39147 ft 504 kts 93°
2026-04-25 21:34 48.35651 9.31487 39148 ft 504 kts 93°
2026-04-25 21:35 48.35051 9.41995 39148 ft 504 kts 93°
2026-04-25 21:35 48.34442 9.52491 39147 ft 504 kts 93°
2026-04-25 21:36 48.33652 9.62996 39151 ft 506 kts 99°
2026-04-25 21:36 48.32225 9.73339 39156 ft 506 kts 101°
2026-04-25 21:37 48.31270 9.79752 39158 ft 507 kts 101°
2026-04-25 21:37 48.29187 9.93484 39158 ft 507 kts 101°
2026-04-25 21:38 48.27619 10.03820 39158 ft 507 kts 101°
2026-04-25 21:38 48.26052 10.14134 39151 ft 507 kts 101°
2026-04-25 21:39 48.24474 10.24464 39149 ft 507 kts 101°
2026-04-25 21:39 48.22888 10.34774 39144 ft 507 kts 101°
2026-04-25 21:40 48.21563 10.43333 39142 ft 507 kts 101°
2026-04-25 21:40 48.19958 10.53642 39149 ft 507 kts 101°
2026-04-25 21:41 48.18345 10.63939 39152 ft 507 kts 102°
2026-04-25 21:41 48.16719 10.74254 39158 ft 507 kts 102°
2026-04-25 21:42 48.15098 10.84468 39157 ft 508 kts 102°
2026-04-25 21:42 48.13467 10.94739 39156 ft 507 kts 101°
2026-04-25 21:43 48.12466 11.05208 39153 ft 506 kts 94°
2026-04-25 21:43 48.11679 11.15691 39157 ft 506 kts 94°
2026-04-25 21:44 48.10893 11.26154 39159 ft 506 kts 94°
2026-04-25 21:45 48.09703 11.41795 39158 ft 507 kts 94°
2026-04-25 21:45 48.08889 11.52349 39148 ft 507 kts 94°
2026-04-25 21:46 48.08071 11.62817 39142 ft 507 kts 95°
2026-04-25 21:46 48.07250 11.73197 38541 ft 505 kts 95°
2026-04-25 21:46 48.06834 11.78413 38184 ft 504 kts 95°
2026-04-25 21:47 48.06417 11.83609 38127 ft 506 kts 95°
2026-04-25 21:47 48.05568 11.94115 38127 ft 508 kts 95°
2026-04-25 21:48 48.04709 12.04599 38124 ft 508 kts 95°
2026-04-25 21:48 48.03841 12.15087 38123 ft 508 kts 95°
2026-04-25 21:48 48.03404 12.20318 38018 ft 508 kts 95°
2026-04-25 21:49 48.02964 12.25559 37442 ft 506 kts 95°
2026-04-25 21:49 48.02523 12.30770 37165 ft 506 kts 95°
2026-04-25 21:49 48.02080 12.36005 37119 ft 509 kts 95°
2026-04-25 21:50 48.01193 12.46440 37115 ft 510 kts 95°
2026-04-25 21:50 48.00766 12.57048 37119 ft 508 kts 90°
2026-04-25 21:51 48.00468 12.67479 37116 ft 508 kts 90°
2026-04-25 21:51 48.00160 12.78052 37120 ft 508 kts 90°
2026-04-25 21:52 47.99844 12.88608 37121 ft 508 kts 90°
2026-04-25 21:52 47.99520 12.99138 37121 ft 508 kts 90°
2026-04-25 21:53 47.99184 13.09695 36960 ft 506 kts 90°
2026-04-25 21:53 47.99014 13.14931 36238 ft 506 kts 90°
2026-04-25 21:53 47.98842 13.20201 35388 ft 509 kts 90°
2026-04-25 21:53 47.98666 13.25481 34565 ft 512 kts 90°
2026-04-25 21:54 47.98486 13.30811 33807 ft 512 kts 90°
2026-04-25 21:54 47.98304 13.36074 33165 ft 507 kts 90°
2026-04-25 21:54 47.98124 13.41250 32544 ft 504 kts 90°
2026-04-25 21:54 47.97941 13.46460 31968 ft 499 kts 90°
2026-04-25 21:55 47.97757 13.51610 31424 ft 494 kts 90°
2026-04-25 21:55 47.97573 13.56707 30897 ft 490 kts 90°
2026-04-25 21:55 47.97388 13.61755 30387 ft 485 kts 90°
2026-04-25 21:55 47.97203 13.66762 29829 ft 480 kts 90°
2026-04-25 21:56 47.97018 13.71712 29227 ft 477 kts 90°
2026-04-25 21:56 47.96894 13.74983 28822 ft 474 kts 90°
2026-04-25 21:56 47.96647 13.81466 28280 ft 468 kts 90°
2026-04-25 21:56 47.96459 13.86401 28127 ft 485 kts 90°
2026-04-25 21:57 47.96263 13.91484 28066 ft 493 kts 91°
2026-04-25 21:57 47.96060 13.96612 27898 ft 493 kts 91°
2026-04-25 21:57 47.95857 14.01641 27642 ft 491 kts 91°
2026-04-25 21:57 47.95648 14.06783 27376 ft 490 kts 91°
2026-04-25 21:58 47.95443 14.11790 27120 ft 488 kts 91°
2026-04-25 21:58 47.95235 14.16823 26863 ft 486 kts 91°
2026-04-25 21:58 47.95025 14.21863 26610 ft 485 kts 91°
2026-04-25 21:58 47.94813 14.26879 26357 ft 483 kts 91°
2026-04-25 21:59 47.94600 14.31873 26110 ft 482 kts 91°
2026-04-25 21:59 47.94384 14.36858 25859 ft 481 kts 91°
2026-04-25 21:59 47.94167 14.41817 25619 ft 479 kts 91°
2026-04-25 22:00 47.93731 14.51731 25125 ft 477 kts 92°
2026-04-25 22:00 47.93510 14.56657 24895 ft 475 kts 92°
2026-04-25 22:00 47.93289 14.61581 24656 ft 474 kts 92°
2026-04-25 22:00 47.93066 14.66483 24418 ft 473 kts 92°
2026-04-25 22:01 47.92841 14.71374 24184 ft 472 kts 92°
2026-04-25 22:01 47.92615 14.76199 23957 ft 471 kts 92°
2026-04-25 22:01 47.92386 14.81066 23724 ft 470 kts 92°
2026-04-25 22:01 47.92231 14.84339 23550 ft 470 kts 92°
2026-04-25 22:02 47.91922 14.90775 23182 ft 468 kts 93°
2026-04-25 22:02 47.91692 14.95556 22961 ft 455 kts 92°
2026-04-25 22:02 47.91465 15.00204 22559 ft 446 kts 93°
2026-04-25 22:02 47.91240 15.04797 21933 ft 443 kts 93°
2026-04-25 22:03 47.91014 15.09361 21354 ft 436 kts 93°
2026-04-25 22:03 47.90793 15.13778 20361 ft 422 kts 93°
2026-04-25 22:03 47.90574 15.18145 19626 ft 423 kts 93°
2026-04-25 22:03 47.90354 15.22505 18963 ft 420 kts 93°
2026-04-25 22:04 47.90133 15.26851 18366 ft 423 kts 93°
2026-04-25 22:04 47.89907 15.31242 17583 ft 427 kts 93°
2026-04-25 22:04 47.89678 15.35697 17161 ft 437 kts 93°
2026-04-25 22:04 47.89516 15.40186 17021 ft 438 kts 89°
2026-04-25 22:05 47.89454 15.44728 17052 ft 438 kts 89°
2026-04-25 22:05 47.89211 15.49248 16926 ft 435 kts 98°
2026-04-25 22:05 47.88640 15.53633 16246 ft 431 kts 97°
2026-04-25 22:05 47.88430 15.58085 15946 ft 432 kts 91°
2026-04-25 22:06 47.88321 15.62565 15692 ft 431 kts 90°
2026-04-25 22:06 47.88229 15.67022 15439 ft 430 kts 90°
2026-04-25 22:06 47.88142 15.71470 15193 ft 429 kts 90°
2026-04-25 22:06 47.88058 15.75908 14951 ft 427 kts 90°
2026-04-25 22:07 47.87974 15.80323 14711 ft 426 kts 90°
2026-04-25 22:07 47.87919 15.83289 14540 ft 426 kts 90°
2026-04-25 22:07 47.87808 15.89135 14223 ft 423 kts 90°
2026-04-25 22:07 47.87723 15.93516 13985 ft 422 kts 90°
2026-04-25 22:08 47.87637 15.97879 13743 ft 421 kts 90°
2026-04-25 22:08 47.87550 16.02230 13474 ft 419 kts 90°
2026-04-25 22:08 47.87462 16.06561 13207 ft 417 kts 90°
2026-04-25 22:08 47.87368 16.10869 12918 ft 415 kts 90°
2026-04-25 22:09 47.87278 16.15149 12276 ft 412 kts 90°
2026-04-25 22:09 47.87189 16.19351 11931 ft 399 kts 90°
2026-04-25 22:09 47.87099 16.23412 11638 ft 385 kts 90°
2026-04-25 22:09 47.87013 16.27282 11366 ft 372 kts 90°
2026-04-25 22:10 47.86928 16.31074 11121 ft 360 kts 90°
2026-04-25 22:10 47.86844 16.34742 10881 ft 349 kts 90°
2026-04-25 22:10 47.86914 16.38293 10648 ft 336 kts 82°
2026-04-25 22:10 47.87160 16.41682 10448 ft 325 kts 80°
2026-04-25 22:11 47.87432 16.44982 10247 ft 315 kts 80°
2026-04-25 22:11 47.87707 16.48193 9951 ft 310 kts 79°
2026-04-25 22:11 47.87984 16.51363 9576 ft 307 kts 79°
2026-04-25 22:11 47.88260 16.54497 9189 ft 304 kts 79°
2026-04-25 22:12 47.88530 16.57552 8803 ft 302 kts 79°
2026-04-25 22:12 47.88805 16.60653 8377 ft 300 kts 79°
2026-04-25 22:12 47.89076 16.63731 7986 ft 298 kts 79°
2026-04-25 22:12 47.89258 16.65795 7723 ft 296 kts 79°
2026-04-25 22:13 47.89611 16.69806 7218 ft 294 kts 79°
2026-04-25 22:13 47.89874 16.72813 6836 ft 292 kts 80°
2026-04-25 22:13 47.90136 16.75812 6460 ft 290 kts 80°
2026-04-25 22:13 47.90394 16.78779 6062 ft 289 kts 80°
2026-04-25 22:14 47.90647 16.81747 5666 ft 287 kts 80°
2026-04-25 22:14 47.90618 16.84723 5254 ft 290 kts 99°
2026-04-25 22:14 47.89897 16.87527 4900 ft 289 kts 115°
2026-04-25 22:14 47.88985 16.90186 4502 ft 289 kts 116°
2026-04-25 22:15 47.88067 16.92853 4130 ft 287 kts 115°
2026-04-25 22:15 47.87172 16.95487 4002 ft 286 kts 115°
2026-04-25 22:15 47.86278 16.98133 3993 ft 286 kts 115°
2026-04-25 22:16 47.84878 17.03369 3992 ft 260 kts 92°
2026-04-25 22:16 47.85067 17.05986 3992 ft 252 kts 66°
2026-04-25 22:16 47.85910 17.08164 3982 ft 243 kts 42°
2026-04-25 22:16 47.87294 17.09479 4002 ft 233 kts 12°
2026-04-25 22:17 47.88873 17.09551 3987 ft 228 kts 343°
2026-04-25 22:17 47.90324 17.08551 3989 ft 233 kts 327°
2026-04-25 22:17 47.91676 17.07254 3980 ft 228 kts 325°
2026-04-25 22:17 47.92984 17.05950 3984 ft 225 kts 325°
2026-04-25 22:18 47.94285 17.04649 3984 ft 225 kts 325°
2026-04-25 22:18 47.95487 17.03158 3984 ft 225 kts 314°
2026-04-25 22:18 47.96457 17.01334 3983 ft 225 kts 304°
2026-04-25 22:18 47.97236 16.99348 3984 ft 225 kts 299°
2026-04-25 22:19 47.97939 16.97257 3989 ft 225 kts 297°
2026-04-25 22:19 47.98624 16.95150 3987 ft 225 kts 297°
2026-04-25 22:19 47.99307 16.93046 3987 ft 225 kts 297°
2026-04-25 22:19 47.99994 16.90945 3998 ft 225 kts 297°
2026-04-25 22:20 48.00666 16.88895 3992 ft 213 kts 298°
2026-04-25 22:20 48.01293 16.86988 3987 ft 198 kts 298°
2026-04-25 22:20 48.01887 16.85181 4022 ft 189 kts 298°
2026-04-25 22:20 48.02437 16.83503 4005 ft 171 kts 298°
2026-04-25 22:21 48.02936 16.81977 4000 ft 156 kts 298°
2026-04-25 22:21 48.03405 16.80546 3936 ft 152 kts 298°
2026-04-25 22:21 48.03866 16.79136 3749 ft 151 kts 298°
2026-04-25 22:21 48.04325 16.77731 3534 ft 151 kts 298°
2026-04-25 22:22 48.04787 16.76316 3321 ft 151 kts 298°
2026-04-25 22:22 48.05247 16.74906 3115 ft 151 kts 299°
2026-04-25 22:22 48.05704 16.73504 2911 ft 148 kts 299°
2026-04-25 22:22 48.06150 16.72137 2732 ft 146 kts 299°
2026-04-25 22:23 48.06582 16.70810 2507 ft 135 kts 300°
2026-04-25 22:23 48.06975 16.69607 2352 ft 128 kts 300°
2026-04-25 22:23 48.07364 16.68418 2184 ft 127 kts 299°
2026-04-25 22:23 48.07749 16.67236 2012 ft 126 kts 299°
2026-04-25 22:24 48.08134 16.66056 1844 ft 126 kts 298°
2026-04-25 22:24 48.08521 16.64869 1675 ft 128 kts 298°
2026-04-25 22:24 48.08910 16.63675 1499 ft 128 kts 298°
2026-04-25 22:24 48.09303 16.62470 1334 ft 130 kts 297°
2026-04-25 22:25 48.09567 16.61662 1221 ft 131 kts 296°
2026-04-25 22:25 48.09966 16.60432 1046 ft 131 kts 297°
2026-04-25 22:25 48.10366 16.59207 878 ft 131 kts 296°
2026-04-25 22:25 48.10765 16.57982 711 ft 131 kts 295°
2026-04-25 22:26 48.11157 16.56773 630 ft 122 kts 299°
2026-04-25 22:26 48.11446 16.55903 626 ft 65 kts 295°
2026-04-25 22:26 48.11556 16.55564 627 ft 14 kts 297°
2026-04-25 22:26 48.11615 16.55419 626 ft 17 kts 306°
2026-04-25 22:27 48.11707 16.55289 626 ft 20 kts 321°
2026-04-25 22:27 48.11813 16.55157 627 ft 19 kts 335°
2026-04-25 22:27 48.11883 16.55172 622 ft 3 kts 61°
2026-04-25 22:27 48.11881 16.55206 622 ft 4 kts 106°
2026-04-25 22:28 48.11867 16.55257 625 ft 7 kts 116°
2026-04-25 22:28 48.11840 16.55338 624 ft 10 kts 116°
2026-04-25 22:28 48.11804 16.55449 626 ft 14 kts 116°
2026-04-25 22:28 48.11757 16.55591 625 ft 17 kts 115°
2026-04-25 22:29 48.11702 16.55762 627 ft 20 kts 116°
2026-04-25 22:29 48.11638 16.55957 629 ft 22 kts 116°
2026-04-25 22:29 48.11569 16.56169 621 ft 20 kts 116°
2026-04-25 22:30 48.11448 16.56538 629 ft 19 kts 115°
2026-04-25 22:30 48.11397 16.56700 626 ft 17 kts 116°
2026-04-25 22:30 48.11341 16.56871 624 ft 19 kts 116°
2026-04-25 22:30 48.11307 16.56974 624 ft 16 kts 116°
2026-04-25 22:31 48.11259 16.57121 627 ft 12 kts 117°
2026-04-25 22:31 48.11245 16.57163 622 ft 0 kts 116°
2026-04-25 22:32 48.11239 16.57181 624 ft 3 kts 116°
2026-04-25 22:33 48.11229 16.57225 625 ft 5 kts 97°
2026-04-25 22:33 48.11246 16.57275 629 ft 6 kts 43°
2026-04-25 22:33 48.11289 16.57313 625 ft 8 kts 26°
2026-04-25 22:33 48.11351 16.57359 624 ft 11 kts 26°
2026-04-25 22:34 48.11429 16.57417 625 ft 14 kts 26°
2026-04-25 22:34 48.11526 16.57464 618 ft 16 kts 359°
2026-04-25 22:34 48.11636 16.57418 626 ft 17 kts 344°
2026-04-25 22:34 48.11760 16.57366 623 ft 19 kts 344°
2026-04-25 22:35 48.11846 16.57239 623 ft 19 kts 297°
2026-04-25 22:35 48.11901 16.57073 624 ft 13 kts 296°
2026-04-25 22:35 48.11917 16.57025 626 ft 0 kts 296°
2026-04-25 22:35 48.11915 16.57012 622 ft 6 kts 262°
2026-04-25 22:36 48.11873 16.56953 627 ft 8 kts 207°
2026-04-25 22:36 48.11852 16.56937 626 ft 0 kts 207°
2026-04-25 22:36 48.11848 16.56934 627 ft 0 kts 207°